Time,TemperatureF,DewpointF,PressureIn,WindDirection,WindDirectionDegrees,WindSpeedMPH,WindSpeedGustMPH,Humidity,HourlyPrecipIn,Conditions,Clouds,dailyrainin,SoftwareType,DateUTC
2013-01-13 00:04:00,70.7,63.5,29.71,SSE,158,6.7,9.2,78,0.00,CLR,,0.00,WeatherDisplay:10.37,2013-01-13 06:04:00,
2013-01-13 00:09:00,70.7,63.5,29.71,South,180,6.4,9.2,78,0.00,CLR,,0.00,WeatherDisplay:10.37,2013-01-13 06:09:00,
2013-01-13 00:14:00,70.7,63.5,29.71,SSE,158,7.1,9.7,78,0.00,CLR,,0.00,WeatherDisplay:10.37,2013-01-13 06:14:00,
2013-01-13 00:19:00,70.7,63.5,29.71,SSW,202,6.7,9.8,78,0.00,CLR,,0.00,WeatherDisplay:10.37,2013-01-13 06:19:00,
2013-01-13 00:24:00,70.7,63.5,29.71,SSE,158,5.9,8.1,78,0.00,CLR,,0.00,WeatherDisplay:10.37,2013-01-13 06:24:00,
2013-01-13 00:29:00,70.7,63.5,29.71,SSE,158,6.0,11.5,78,0.00,CLR,,0.00,WeatherDisplay:10.37,2013-01-13 06:29:00,
2013-01-13 00:34:00,70.7,63.9,29.68,SSE,158,8.5,12.7,79,0.00,CLR,,0.00,WeatherDisplay:10.37,2013-01-13 06:34:00,
2013-01-13 00:39:00,70.7,63.9,29.68,SSW,202,8.5,13.8,79,0.00,CLR,,0.00,WeatherDisplay:10.37,2013-01-13 06:39:00,
2013-01-13 00:44:00,70.7,64.2,29.68,South,180,7.1,12.7,80,0.00,CLR,,0.00,WeatherDisplay:10.37,2013-01-13 06:44:00,
2013-01-13 00:49:00,70.7,64.2,29.68,ESE,112,6.4,9.2,80,0.00,CLR,,0.00,WeatherDisplay:10.37,2013-01-13 06:49:00,
2013-01-13 00:54:00,70.7,63.9,29.68,SE,135,5.6,11.5,79,0.00,CLR,,0.00,WeatherDisplay:10.37,2013-01-13 06:54:00,
2013-01-13 00:59:00,70.7,63.9,29.68,SSE,158,8.1,12.5,79,0.00,CLR,,0.00,WeatherDisplay:10.37,2013-01-13 06:59:00,
2013-01-13 01:04:00,70.7,63.9,29.68,SSE,158,7.6,12.7,79,0.00,CLR,,0.00,WeatherDisplay:10.37,2013-01-13 07:04:00,
2013-01-13 01:09:00,70.7,63.9,29.68,SSW,202,11.4,16.1,79,0.00,CLR,,0.00,WeatherDisplay:10.37,2013-01-13 07:09:00,
2013-01-13 01:14:00,70.7,63.9,29.68,SE,135,10.2,13.8,79,0.00,CLR,,0.00,WeatherDisplay:10.37,2013-01-13 07:14:00,
2013-01-13 01:19:00,70.7,63.9,29.68,SSE,158,7.8,11.5,79,0.00,CLR,,0.00,WeatherDisplay:10.37,2013-01-13 07:19:00,
2013-01-13 01:24:00,70.7,63.9,29.68,South,180,7.4,13.8,79,0.00,CLR,,0.00,WeatherDisplay:10.37,2013-01-13 07:24:00,
2013-01-13 01:29:00,70.7,64.2,29.68,SSE,158,7.1,8.5,80,0.00,CLR,,0.00,WeatherDisplay:10.37,2013-01-13 07:29:00,
2013-01-13 01:34:00,70.7,64.2,29.68,South,180,9.2,13.8,80,0.00,CLR,,0.00,WeatherDisplay:10.37,2013-01-13 07:34:00,
2013-01-13 01:39:00,70.7,64.2,29.68,SSE,158,10.5,15.0,80,0.00,CLR,,0.00,WeatherDisplay:10.37,2013-01-13 07:39:00,
2013-01-13 01:44:00,70.7,64.2,29.68,SSE,158,6.4,9.8,80,0.00,CLR,,0.00,WeatherDisplay:10.37,2013-01-13 07:44:00,
2013-01-13 01:49:00,70.7,63.9,29.68,South,180,6.2,13.2,79,0.00,CLR,,0.00,WeatherDisplay:10.37,2013-01-13 07:49:00,
2013-01-13 01:54:00,70.7,63.9,29.68,SSE,158,8.7,17.3,79,0.00,CLR,,0.00,WeatherDisplay:10.37,2013-01-13 07:54:00,
2013-01-13 01:59:00,70.7,63.9,29.68,South,180,9.0,13.8,79,0.00,CLR,,0.00,WeatherDisplay:10.37,2013-01-13 07:59:00,
2013-01-13 02:04:00,70.7,63.5,29.68,South,180,7.8,11.5,78,0.00,CLR,,0.00,WeatherDisplay:10.37,2013-01-13 08:04:00,
2013-01-13 02:09:00,70.7,63.9,29.68,SSE,158,8.1,10.9,79,0.00,CLR,,0.00,WeatherDisplay:10.37,2013-01-13 08:09:00,
2013-01-13 02:14:00,70.7,63.9,29.68,SSE,158,9.4,11.5,79,0.00,CLR,,0.00,WeatherDisplay:10.37,2013-01-13 08:14:00,
2013-01-13 02:19:00,70.7,63.9,29.65,SSE,158,10.5,15.2,79,0.00,CLR,,0.00,WeatherDisplay:10.37,2013-01-13 08:19:00,
2013-01-13 02:24:00,70.9,64.0,29.65,SSW,202,9.0,15.0,79,0.00,CLR,,0.00,WeatherDisplay:10.37,2013-01-13 08:24:00,
2013-01-13 02:29:00,70.9,64.0,29.65,SSE,158,9.4,14.3,79,0.00,CLR,,0.00,WeatherDisplay:10.37,2013-01-13 08:29:00,
2013-01-13 02:34:00,70.9,64.0,29.65,SE,135,8.7,13.8,79,0.00,CLR,,0.00,WeatherDisplay:10.37,2013-01-13 08:34:00,
2013-01-13 02:39:00,70.9,64.0,29.65,SSE,158,6.2,12.7,79,0.00,CLR,,0.00,WeatherDisplay:10.37,2013-01-13 08:39:00,
2013-01-13 02:44:00,71.1,64.2,29.65,South,180,6.7,12.7,79,0.00,CLR,,0.00,WeatherDisplay:10.37,2013-01-13 08:44:00,
2013-01-13 02:49:00,71.1,63.9,29.65,SSE,158,6.7,10.4,78,0.00,CLR,,0.00,WeatherDisplay:10.37,2013-01-13 08:49:00,
2013-01-13 02:54:00,71.1,63.9,29.65,South,180,9.7,11.5,78,0.00,CLR,,0.00,WeatherDisplay:10.37,2013-01-13 08:54:00,
2013-01-13 02:59:00,71.1,63.9,29.65,SSW,202,4.9,11.5,78,0.00,CLR,,0.00,WeatherDisplay:10.37,2013-01-13 08:59:00,
2013-01-13 03:04:00,71.1,63.9,29.65,SSE,158,7.6,12.7,78,0.00,CLR,,0.00,WeatherDisplay:10.37,2013-01-13 09:04:00,
2013-01-13 03:09:00,71.1,64.2,29.65,SSW,202,6.4,13.8,79,0.00,CLR,,0.00,WeatherDisplay:10.37,2013-01-13 09:09:00,
2013-01-13 03:14:00,71.1,64.2,29.65,SE,135,9.7,12.8,79,0.00,CLR,,0.00,WeatherDisplay:10.37,2013-01-13 09:14:00,
2013-01-13 03:19:00,71.1,64.2,29.65,South,180,9.7,13.8,79,0.00,CLR,,0.00,WeatherDisplay:10.37,2013-01-13 09:19:00,
2013-01-13 03:24:00,71.1,64.2,29.65,SSE,158,9.4,11.5,79,0.00,CLR,,0.00,WeatherDisplay:10.37,2013-01-13 09:24:00,
2013-01-13 03:29:00,71.1,64.2,29.65,SSE,158,6.9,12.5,79,0.00,CLR,,0.00,WeatherDisplay:10.37,2013-01-13 09:29:00,
2013-01-13 03:34:00,71.1,64.2,29.68,SSW,202,6.0,8.1,79,0.00,CLR,,0.00,WeatherDisplay:10.37,2013-01-13 09:34:00,
2013-01-13 03:39:00,71.1,64.2,29.68,South,180,7.1,10.4,79,0.00,CLR,,0.00,WeatherDisplay:10.37,2013-01-13 09:39:00,
2013-01-13 03:44:00,71.1,64.2,29.68,SW,225,7.8,10.9,79,0.00,CLR,,0.00,WeatherDisplay:10.37,2013-01-13 09:44:00,
2013-01-13 03:49:00,71.1,64.2,29.68,SSW,202,6.0,10.0,79,0.00,CLR,,0.00,WeatherDisplay:10.37,2013-01-13 09:49:00,
2013-01-13 03:54:00,71.1,64.2,29.68,SSW,202,5.9,8.1,79,0.00,CLR,,0.00,WeatherDisplay:10.37,2013-01-13 09:54:00,
2013-01-13 03:59:00,71.1,64.2,29.68,SSE,158,6.0,9.2,79,0.00,CLR,,0.00,WeatherDisplay:10.37,2013-01-13 09:59:00,
2013-01-13 04:04:00,71.1,64.2,29.68,SSE,158,6.2,9.7,79,0.00,CLR,,0.00,WeatherDisplay:10.37,2013-01-13 10:04:00,
2013-01-13 04:09:00,71.1,64.2,29.68,South,180,4.7,10.4,79,0.00,CLR,,0.00,WeatherDisplay:10.37,2013-01-13 10:09:00,
2013-01-13 04:14:00,71.1,64.2,29.68,South,180,4.9,8.7,79,0.00,CLR,,0.00,WeatherDisplay:10.37,2013-01-13 10:14:00,
2013-01-13 04:19:00,71.1,64.6,29.68,South,180,4.9,8.1,80,0.00,CLR,,0.00,WeatherDisplay:10.37,2013-01-13 10:19:00,
2013-01-13 04:24:00,71.2,64.8,29.68,SSE,158,6.4,9.2,80,0.00,CLR,,0.00,WeatherDisplay:10.37,2013-01-13 10:24:00,
2013-01-13 04:29:00,71.2,64.4,29.68,SSE,158,5.6,8.1,79,0.00,CLR,,0.00,WeatherDisplay:10.37,2013-01-13 10:29:00,
2013-01-13 04:34:00,71.2,64.8,29.68,SSE,158,6.9,14.7,80,0.00,CLR,,0.00,WeatherDisplay:10.37,2013-01-13 10:34:00,
2013-01-13 04:39:00,71.2,64.4,29.68,SSE,158,9.7,15.0,79,0.00,CLR,,0.00,WeatherDisplay:10.37,2013-01-13 10:39:00,
2013-01-13 04:44:00,71.2,64.4,29.68,South,180,6.7,8.1,79,0.00,CLR,,0.00,WeatherDisplay:10.37,2013-01-13 10:44:00,
2013-01-13 04:49:00,71.2,64.4,29.68,SSW,202,6.7,11.5,79,0.00,CLR,,0.00,WeatherDisplay:10.37,2013-01-13 10:49:00,
2013-01-13 04:54:00,71.2,64.4,29.68,SSE,158,5.6,9.2,79,0.00,CLR,,0.00,WeatherDisplay:10.37,2013-01-13 10:54:00,
2013-01-13 04:59:00,71.2,64.4,29.68,South,180,5.9,8.1,79,0.00,CLR,,0.00,WeatherDisplay:10.37,2013-01-13 10:59:00,
2013-01-13 05:04:00,71.2,64.4,29.68,SSW,202,6.7,9.2,79,0.00,CLR,,0.00,WeatherDisplay:10.37,2013-01-13 11:04:00,
2013-01-13 05:09:00,71.1,64.2,29.68,South,180,7.1,12.7,79,0.00,CLR,,0.00,WeatherDisplay:10.37,2013-01-13 11:09:00,
2013-01-13 05:14:00,71.1,64.2,29.68,SSW,202,8.5,12.7,79,0.00,CLR,,0.00,WeatherDisplay:10.37,2013-01-13 11:14:00,
2013-01-13 05:19:00,71.1,64.2,29.65,SSE,158,9.2,12.7,79,0.00,CLR,,0.00,WeatherDisplay:10.37,2013-01-13 11:19:00,
2013-01-13 05:24:00,71.1,64.2,29.65,SSE,158,7.8,10.4,79,0.00,CLR,,0.00,WeatherDisplay:10.37,2013-01-13 11:24:00,
2013-01-13 05:29:00,71.1,64.6,29.65,South,180,5.6,11.5,80,0.00,CLR,,0.00,WeatherDisplay:10.37,2013-01-13 11:29:00,
2013-01-13 05:34:00,71.1,64.6,29.68,South,180,7.1,11.5,80,0.00,CLR,,0.00,WeatherDisplay:10.37,2013-01-13 11:34:00,
2013-01-13 05:39:00,71.1,64.6,29.68,SSW,202,5.4,8.1,80,0.00,CLR,,0.00,WeatherDisplay:10.37,2013-01-13 11:39:00,
2013-01-13 05:44:00,71.1,64.6,29.68,SSE,158,7.1,9.2,80,0.00,CLR,,0.00,WeatherDisplay:10.37,2013-01-13 11:44:00,
2013-01-13 05:49:00,71.1,64.6,29.68,South,180,5.9,8.1,80,0.00,CLR,,0.00,WeatherDisplay:10.37,2013-01-13 11:49:00,
2013-01-13 05:54:00,71.2,64.8,29.68,South,180,6.7,11.5,80,0.00,CLR,,0.00,WeatherDisplay:10.37,2013-01-13 11:54:00,
2013-01-13 05:59:00,71.2,64.8,29.68,South,180,10.0,14.3,80,0.00,CLR,,0.00,WeatherDisplay:10.37,2013-01-13 11:59:00,
2013-01-13 06:04:00,71.2,64.8,29.68,SSE,158,9.0,15.0,80,0.00,CLR,,0.00,WeatherDisplay:10.37,2013-01-13 12:04:00,
2013-01-13 06:09:00,71.2,64.8,29.68,SSE,158,6.4,8.7,80,0.00,CLR,,0.00,WeatherDisplay:10.37,2013-01-13 12:09:00,
2013-01-13 06:14:00,71.2,64.8,29.68,SSE,158,5.9,9.2,80,0.00,CLR,,0.00,WeatherDisplay:10.37,2013-01-13 12:14:00,
2013-01-13 06:19:00,71.2,64.8,29.68,South,180,7.4,11.4,80,0.00,CLR,,0.00,WeatherDisplay:10.37,2013-01-13 12:19:00,
2013-01-13 06:24:00,71.1,64.6,29.68,SSE,158,6.4,12.7,80,0.00,CLR,,0.00,WeatherDisplay:10.37,2013-01-13 12:24:00,
2013-01-13 06:29:00,71.1,64.2,29.68,SE,135,7.1,13.8,79,0.00,CLR,,0.00,WeatherDisplay:10.37,2013-01-13 12:29:00,
2013-01-13 06:34:00,71.1,64.2,29.68,SE,135,9.8,15.0,79,0.00,CLR,,0.00,WeatherDisplay:10.37,2013-01-13 12:34:00,
2013-01-13 06:39:00,71.1,64.6,29.68,SE,135,9.7,13.8,80,0.00,CLR,,0.00,WeatherDisplay:10.37,2013-01-13 12:39:00,
2013-01-13 06:44:00,71.1,64.6,29.68,South,180,7.6,10.7,80,0.00,CLR,,0.00,WeatherDisplay:10.37,2013-01-13 12:44:00,
2013-01-13 06:49:00,71.1,64.6,29.68,SSE,158,7.6,12.7,80,0.00,CLR,,0.00,WeatherDisplay:10.37,2013-01-13 12:49:00,
2013-01-13 06:54:00,71.1,64.6,29.68,SSE,158,6.2,15.0,80,0.00,CLR,,0.00,WeatherDisplay:10.37,2013-01-13 12:54:00,
2013-01-13 06:59:00,71.1,64.6,29.68,SSE,158,6.0,9.2,80,0.00,CLR,,0.00,WeatherDisplay:10.37,2013-01-13 12:59:00,
2013-01-13 07:04:00,71.1,64.6,29.68,SSE,158,9.0,15.0,80,0.00,CLR,,0.00,WeatherDisplay:10.37,2013-01-13 13:04:00,
2013-01-13 07:09:00,71.1,64.2,29.68,South,180,6.7,10.4,79,0.00,CLR,,0.00,WeatherDisplay:10.37,2013-01-13 13:09:00,
2013-01-13 07:14:00,71.1,64.2,29.68,SE,135,8.5,13.8,79,0.00,CLR,,0.00,WeatherDisplay:10.37,2013-01-13 13:14:00,
2013-01-13 07:19:00,71.1,63.9,29.71,SSE,158,6.4,11.5,78,0.00,CLR,,0.00,WeatherDisplay:10.37,2013-01-13 13:19:00,
2013-01-13 07:24:00,71.1,64.2,29.71,SSW,202,6.7,10.4,79,0.00,CLR,,0.00,WeatherDisplay:10.37,2013-01-13 13:24:00,
2013-01-13 07:29:00,71.2,64.4,29.71,SSE,158,7.1,8.1,79,0.00,CLR,,0.00,WeatherDisplay:10.37,2013-01-13 13:29:00,
2013-01-13 07:34:00,71.2,64.4,29.71,SSE,158,7.4,10.9,79,0.00,CLR,,0.00,WeatherDisplay:10.37,2013-01-13 13:34:00,
2013-01-13 07:39:00,71.2,64.4,29.71,SSE,158,8.1,13.8,79,0.00,CLR,,0.00,WeatherDisplay:10.37,2013-01-13 13:39:00,
2013-01-13 07:44:00,71.2,64.4,29.71,SSW,202,12.3,16.1,79,0.00,CLR,,0.00,WeatherDisplay:10.37,2013-01-13 13:44:00,
2013-01-13 07:49:00,71.4,64.2,29.68,SSE,158,8.7,12.7,78,0.00,CLR,,0.00,WeatherDisplay:10.37,2013-01-13 13:49:00,
2013-01-13 07:54:00,71.4,64.2,29.68,SSE,158,9.0,12.7,78,0.00,CLR,,0.00,WeatherDisplay:10.37,2013-01-13 13:54:00,
2013-01-13 07:59:00,71.4,63.8,29.68,SE,135,10.5,13.8,77,0.00,CLR,,0.00,WeatherDisplay:10.37,2013-01-13 13:59:00,
2013-01-13 08:04:00,71.6,63.6,29.68,South,180,7.1,11.5,76,0.00,CLR,,0.00,WeatherDisplay:10.37,2013-01-13 14:04:00,
2013-01-13 08:09:00,71.6,63.3,29.68,SSW,202,7.1,12.7,75,0.00,CLR,,0.00,WeatherDisplay:10.37,2013-01-13 14:09:00,
2013-01-13 08:14:00,71.8,63.0,29.68,SSE,158,7.1,15.0,74,0.00,CLR,,0.00,WeatherDisplay:10.37,2013-01-13 14:14:00,
2013-01-13 08:19:00,71.8,62.7,29.68,SSE,158,10.2,15.2,73,0.00,CLR,,0.00,WeatherDisplay:10.37,2013-01-13 14:19:00,
2013-01-13 08:24:00,72.0,62.8,29.68,SE,135,12.8,15.0,73,0.00,CLR,,0.00,WeatherDisplay:10.37,2013-01-13 14:24:00,
2013-01-13 08:29:00,72.1,62.6,29.68,SSE,158,8.7,11.5,72,0.00,CLR,,0.00,WeatherDisplay:10.37,2013-01-13 14:29:00,
2013-01-13 08:34:00,72.1,62.2,29.68,South,180,9.0,12.7,71,0.00,CLR,,0.00,WeatherDisplay:10.37,2013-01-13 14:34:00,
2013-01-13 08:39:00,72.3,62.4,29.68,SSE,158,4.9,9.2,71,0.00,CLR,,0.00,WeatherDisplay:10.37,2013-01-13 14:39:00,
2013-01-13 08:44:00,72.5,62.2,29.68,SSE,158,8.7,10.4,70,0.00,CLR,,0.00,WeatherDisplay:10.37,2013-01-13 14:44:00,
2013-01-13 08:49:00,72.5,61.7,29.68,SSE,158,10.5,11.5,69,0.00,CLR,,0.00,WeatherDisplay:10.37,2013-01-13 14:49:00,
2013-01-13 08:54:00,72.7,61.5,29.68,SSE,158,7.8,12.7,68,0.00,CLR,,0.00,WeatherDisplay:10.37,2013-01-13 14:54:00,
2013-01-13 08:59:00,72.9,61.3,29.68,South,180,9.0,17.3,67,0.00,CLR,,0.00,WeatherDisplay:10.37,2013-01-13 14:59:00,
2013-01-13 09:04:00,73.0,61.0,29.71,SSE,158,10.5,12.7,66,0.00,CLR,,0.00,WeatherDisplay:10.37,2013-01-13 15:04:00,
2013-01-13 09:09:00,73.4,60.9,29.71,South,180,7.1,12.1,65,0.00,CLR,,0.00,WeatherDisplay:10.37,2013-01-13 15:09:00,
2013-01-13 09:14:00,73.4,60.5,29.71,South,180,9.7,12.7,64,0.00,CLR,,0.00,WeatherDisplay:10.37,2013-01-13 15:14:00,
2013-01-13 09:19:00,73.6,60.2,29.71,South,180,7.4,12.7,63,0.00,CLR,,0.00,WeatherDisplay:10.37,2013-01-13 15:19:00,
2013-01-13 09:24:00,73.6,59.8,29.71,SE,135,11.8,12.7,62,0.00,CLR,,0.00,WeatherDisplay:10.37,2013-01-13 15:24:00,
2013-01-13 09:29:00,73.8,59.5,29.71,SSE,158,7.6,15.4,61,0.00,CLR,,0.00,WeatherDisplay:10.37,2013-01-13 15:29:00,
2013-01-13 09:34:00,73.8,59.5,29.71,SSE,158,10.2,15.0,61,0.00,CLR,,0.00,WeatherDisplay:10.37,2013-01-13 15:34:00,
2013-01-13 09:39:00,73.9,59.2,29.71,SSE,158,7.1,8.1,60,0.00,CLR,,0.00,WeatherDisplay:10.37,2013-01-13 15:39:00,
2013-01-13 09:44:00,74.1,58.9,29.71,SSE,158,9.2,10.7,59,0.00,CLR,,0.00,WeatherDisplay:10.37,2013-01-13 15:44:00,
2013-01-13 09:49:00,74.7,58.9,29.71,South,180,7.6,10.5,58,0.00,CLR,,0.00,WeatherDisplay:10.37,2013-01-13 15:49:00,
2013-01-13 09:54:00,74.8,58.6,29.71,SSE,158,9.4,15.4,57,0.00,CLR,,0.00,WeatherDisplay:10.37,2013-01-13 15:54:00,
2013-01-13 09:59:00,75.0,57.8,29.71,SSE,158,9.7,9.7,55,0.00,CLR,,0.00,WeatherDisplay:10.37,2013-01-13 15:59:00,
2013-01-13 10:04:00,75.6,57.2,29.71,SSE,158,7.1,11.5,53,0.00,CLR,,0.00,WeatherDisplay:10.37,2013-01-13 16:04:00,
2013-01-13 10:09:00,75.7,56.9,29.71,ESE,112,10.5,12.7,52,0.00,CLR,,0.00,WeatherDisplay:10.37,2013-01-13 16:09:00,
2013-01-13 10:14:00,75.9,57.0,29.71,SW,225,5.6,6.9,52,0.00,CLR,,0.00,WeatherDisplay:10.37,2013-01-13 16:14:00,
2013-01-13 10:19:00,75.6,56.2,29.71,SE,135,7.8,13.8,51,0.00,CLR,,0.00,WeatherDisplay:10.37,2013-01-13 16:19:00,
2013-01-13 10:24:00,75.4,56.0,29.71,SSE,158,10.9,12.7,51,0.00,CLR,,0.00,WeatherDisplay:10.37,2013-01-13 16:24:00,
2013-01-13 10:29:00,75.4,56.5,29.71,SSE,158,7.6,15.4,52,0.00,CLR,,0.00,WeatherDisplay:10.37,2013-01-13 16:29:00,
2013-01-13 10:34:00,75.2,56.4,29.71,South,180,6.7,12.1,52,0.00,CLR,,0.00,WeatherDisplay:10.37,2013-01-13 16:34:00,
2013-01-13 10:39:00,75.0,56.2,29.71,SW,225,9.2,12.7,52,0.00,CLR,,0.00,WeatherDisplay:10.37,2013-01-13 16:39:00,
2013-01-13 10:44:00,75.0,56.7,29.71,SSE,158,7.6,11.5,53,0.00,CLR,,0.00,WeatherDisplay:10.37,2013-01-13 16:44:00,
2013-01-13 10:49:00,75.0,57.2,29.71,SSE,158,9.0,15.0,54,0.00,CLR,,0.00,WeatherDisplay:10.37,2013-01-13 16:49:00,
2013-01-13 10:54:00,75.0,57.8,29.71,South,180,8.1,10.4,55,0.00,CLR,,0.00,WeatherDisplay:10.37,2013-01-13 16:54:00,
2013-01-13 10:59:00,75.2,57.9,29.71,South,180,8.5,9.8,55,0.00,CLR,,0.00,WeatherDisplay:10.37,2013-01-13 16:59:00,
2013-01-13 11:04:00,75.2,57.4,29.71,SSW,202,9.0,12.1,54,0.00,CLR,,0.00,WeatherDisplay:10.37,2013-01-13 17:04:00,
2013-01-13 11:09:00,75.6,58.3,29.71,SSE,158,5.6,15.0,55,0.00,CLR,,0.00,WeatherDisplay:10.37,2013-01-13 17:09:00,
2013-01-13 11:14:00,75.4,57.6,29.71,SSW,202,9.2,10.2,54,0.00,CLR,,0.00,WeatherDisplay:10.37,2013-01-13 17:14:00,
2013-01-13 11:19:00,75.4,57.6,29.68,SSE,158,7.4,15.0,54,0.00,CLR,,0.00,WeatherDisplay:10.37,2013-01-13 17:19:00,
2013-01-13 11:24:00,75.6,57.7,29.68,SSW,202,8.5,9.7,54,0.00,CLR,,0.00,WeatherDisplay:10.37,2013-01-13 17:24:00,
2013-01-13 11:29:00,75.7,57.9,29.68,SSE,158,6.0,11.5,54,0.00,CLR,,0.00,WeatherDisplay:10.37,2013-01-13 17:29:00,
2013-01-13 11:34:00,75.7,56.9,29.68,South,180,12.5,12.7,52,0.00,CLR,,0.00,WeatherDisplay:10.37,2013-01-13 17:34:00,
2013-01-13 11:39:00,75.7,56.9,29.68,SSE,158,9.7,13.8,52,0.00,CLR,,0.00,WeatherDisplay:10.37,2013-01-13 17:39:00,
2013-01-13 11:44:00,75.6,56.7,29.68,SSE,158,9.7,18.4,52,0.00,CLR,,0.00,WeatherDisplay:10.37,2013-01-13 17:44:00,
2013-01-13 11:49:00,75.6,57.2,29.68,ESE,112,8.5,12.7,53,0.00,CLR,,0.00,WeatherDisplay:10.37,2013-01-13 17:49:00,
2013-01-13 11:54:00,75.6,57.2,29.68,SSE,158,10.5,12.7,53,0.00,CLR,,0.00,WeatherDisplay:10.37,2013-01-13 17:54:00,
2013-01-13 11:59:00,75.6,57.2,29.68,WSW,248,9.7,15.0,53,0.00,CLR,,0.00,WeatherDisplay:10.37,2013-01-13 17:59:00,
2013-01-13 12:04:00,75.7,57.4,29.68,SSW,202,10.5,17.6,53,0.00,CLR,,0.00,WeatherDisplay:10.37,2013-01-13 18:04:00,
2013-01-13 12:09:00,75.7,57.4,29.68,SSE,158,8.1,10.2,53,0.00,CLR,,0.00,WeatherDisplay:10.37,2013-01-13 18:09:00,
2013-01-13 12:14:00,75.9,57.6,29.68,SE,135,7.8,12.7,53,0.00,CLR,,0.00,WeatherDisplay:10.37,2013-01-13 18:14:00,
2013-01-13 12:19:00,75.9,57.0,29.68,SSE,158,9.7,16.1,52,0.00,CLR,,0.00,WeatherDisplay:10.37,2013-01-13 18:19:00,
2013-01-13 12:24:00,75.9,57.0,29.68,SSE,158,8.7,15.0,52,0.00,CLR,,0.00,WeatherDisplay:10.37,2013-01-13 18:24:00,
2013-01-13 12:29:00,75.9,57.0,29.68,South,180,8.5,10.0,52,0.00,CLR,,0.00,WeatherDisplay:10.37,2013-01-13 18:29:00,
2013-01-13 12:34:00,76.1,57.2,29.68,SSE,158,8.7,10.5,52,0.00,CLR,,0.00,WeatherDisplay:10.37,2013-01-13 18:34:00,
2013-01-13 12:39:00,76.3,57.4,29.68,SSE,158,9.8,13.8,52,0.00,CLR,,0.00,WeatherDisplay:10.37,2013-01-13 18:39:00,
2013-01-13 12:44:00,76.1,57.2,29.68,SSW,202,7.1,12.7,52,0.00,CLR,,0.00,WeatherDisplay:10.37,2013-01-13 18:44:00,
2013-01-13 12:49:00,75.9,57.0,29.68,SSE,158,10.0,13.8,52,0.00,CLR,,0.00,WeatherDisplay:10.37,2013-01-13 18:49:00,
2013-01-13 12:54:00,75.7,56.9,29.68,SSE,158,9.4,13.8,52,0.00,CLR,,0.00,WeatherDisplay:10.37,2013-01-13 18:54:00,
2013-01-13 12:59:00,75.6,57.2,29.68,SSE,158,10.5,15.0,53,0.00,CLR,,0.00,WeatherDisplay:10.37,2013-01-13 18:59:00,
2013-01-13 13:04:00,75.6,57.7,29.68,SSE,158,9.4,12.7,54,0.00,CLR,,0.00,WeatherDisplay:10.37,2013-01-13 19:04:00,
2013-01-13 13:09:00,75.4,57.6,29.68,SSE,158,10.0,17.3,54,0.00,CLR,,0.00,WeatherDisplay:10.37,2013-01-13 19:09:00,
2013-01-13 13:14:00,75.6,58.3,29.68,SSE,158,12.1,15.0,55,0.00,CLR,,0.00,WeatherDisplay:10.37,2013-01-13 19:14:00,
2013-01-13 13:19:00,75.7,58.4,29.68,South,180,10.9,13.8,55,0.00,CLR,,0.00,WeatherDisplay:10.37,2013-01-13 19:19:00,
2013-01-13 13:24:00,75.7,57.9,29.68,SSW,202,11.2,16.1,54,0.00,CLR,,0.00,WeatherDisplay:10.37,2013-01-13 19:24:00,
2013-01-13 13:29:00,75.6,58.3,29.68,SSE,158,10.9,13.0,55,0.00,CLR,,0.00,WeatherDisplay:10.37,2013-01-13 19:29:00,
2013-01-13 13:34:00,75.7,58.4,29.68,SSE,158,10.2,12.7,55,0.00,CLR,,0.00,WeatherDisplay:10.37,2013-01-13 19:34:00,
2013-01-13 13:39:00,75.6,58.3,29.68,South,180,10.2,10.4,55,0.00,CLR,,0.00,WeatherDisplay:10.37,2013-01-13 19:39:00,
2013-01-13 13:44:00,75.4,58.1,29.68,SSW,202,9.8,17.3,55,0.00,CLR,,0.00,WeatherDisplay:10.37,2013-01-13 19:44:00,
2013-01-13 13:49:00,75.4,58.6,29.65,SSW,202,7.8,11.8,56,0.00,CLR,,0.00,WeatherDisplay:10.37,2013-01-13 19:49:00,
2013-01-13 13:54:00,75.4,58.6,29.65,SSE,158,6.4,10.4,56,0.00,CLR,,0.00,WeatherDisplay:10.37,2013-01-13 19:54:00,
2013-01-13 13:59:00,75.4,59.1,29.65,SSE,158,9.2,12.7,57,0.00,CLR,,0.00,WeatherDisplay:10.37,2013-01-13 19:59:00,
2013-01-13 14:04:00,75.4,59.1,29.65,South,180,9.7,12.7,57,0.00,CLR,,0.00,WeatherDisplay:10.37,2013-01-13 20:04:00,
2013-01-13 14:09:00,75.4,59.1,29.65,South,180,9.8,15.2,57,0.00,CLR,,0.00,WeatherDisplay:10.37,2013-01-13 20:09:00,
2013-01-13 14:14:00,75.2,58.9,29.65,SSE,158,9.2,12.1,57,0.00,CLR,,0.00,WeatherDisplay:10.37,2013-01-13 20:14:00,
2013-01-13 14:19:00,75.2,58.9,29.65,SW,225,7.4,10.4,57,0.00,CLR,,0.00,WeatherDisplay:10.37,2013-01-13 20:19:00,
2013-01-13 14:24:00,75.2,59.4,29.65,SW,225,11.8,17.3,58,0.00,CLR,,0.00,WeatherDisplay:10.37,2013-01-13 20:24:00,
2013-01-13 14:29:00,75.0,59.2,29.65,South,180,8.5,11.2,58,0.00,CLR,,0.00,WeatherDisplay:10.37,2013-01-13 20:29:00,
2013-01-13 14:34:00,75.0,59.7,29.68,SSW,202,8.1,12.7,59,0.00,CLR,,0.00,WeatherDisplay:10.37,2013-01-13 20:34:00,
2013-01-13 14:39:00,75.0,59.7,29.68,SSW,202,9.0,12.7,59,0.00,CLR,,0.00,WeatherDisplay:10.37,2013-01-13 20:39:00,
2013-01-13 14:44:00,75.2,59.9,29.68,South,180,5.4,9.2,59,0.00,CLR,,0.00,WeatherDisplay:10.37,2013-01-13 20:44:00,
2013-01-13 14:49:00,75.2,59.9,29.65,SW,225,9.8,12.3,59,0.00,CLR,,0.00,WeatherDisplay:10.37,2013-01-13 20:49:00,
2013-01-13 14:54:00,75.0,59.7,29.65,SSE,158,8.5,10.4,59,0.00,CLR,,0.00,WeatherDisplay:10.37,2013-01-13 20:54:00,
2013-01-13 14:59:00,74.8,60.0,29.65,SSW,202,7.6,10.4,60,0.00,CLR,,0.00,WeatherDisplay:10.37,2013-01-13 20:59:00,
2013-01-13 15:04:00,74.8,60.5,29.65,SSW,202,7.1,9.2,61,0.00,CLR,,0.00,WeatherDisplay:10.37,2013-01-13 21:04:00,
2013-01-13 15:09:00,74.8,60.5,29.65,SE,135,5.9,12.5,61,0.00,CLR,,0.00,WeatherDisplay:10.37,2013-01-13 21:09:00,
2013-01-13 15:14:00,74.8,60.5,29.65,SSE,158,5.6,10.5,61,0.00,CLR,,0.00,WeatherDisplay:10.37,2013-01-13 21:14:00,
2013-01-13 15:19:00,74.7,60.8,29.65,South,180,7.4,12.7,62,0.00,CLR,,0.00,WeatherDisplay:10.37,2013-01-13 21:19:00,
2013-01-13 15:24:00,74.7,60.8,29.65,SSE,158,7.8,10.7,62,0.00,CLR,,0.00,WeatherDisplay:10.37,2013-01-13 21:24:00,
2013-01-13 15:29:00,74.5,61.1,29.65,South,180,5.6,9.2,63,0.00,CLR,,0.00,WeatherDisplay:10.37,2013-01-13 21:29:00,
2013-01-13 15:34:00,74.5,61.1,29.65,South,180,7.4,11.5,63,0.00,CLR,,0.00,WeatherDisplay:10.37,2013-01-13 21:34:00,
2013-01-13 15:39:00,74.5,61.1,29.65,SSW,202,6.7,9.8,63,0.00,CLR,,0.00,WeatherDisplay:10.37,2013-01-13 21:39:00,
2013-01-13 15:44:00,74.3,61.3,29.65,South,180,7.1,8.5,64,0.00,CLR,,0.00,WeatherDisplay:10.37,2013-01-13 21:44:00,
2013-01-13 15:49:00,74.3,61.3,29.68,SSW,202,6.7,15.0,64,0.00,CLR,,0.00,WeatherDisplay:10.37,2013-01-13 21:49:00,
2013-01-13 15:54:00,74.3,61.8,29.68,SSE,158,6.9,12.7,65,0.00,CLR,,0.00,WeatherDisplay:10.37,2013-01-13 21:54:00,
2013-01-13 15:59:00,74.3,61.8,29.68,SW,225,9.7,17.3,65,0.00,CLR,,0.00,WeatherDisplay:10.37,2013-01-13 21:59:00,
2013-01-13 16:04:00,74.1,61.6,29.68,South,180,7.8,13.2,65,0.00,CLR,,0.00,WeatherDisplay:10.37,2013-01-13 22:04:00,
2013-01-13 16:09:00,74.1,62.0,29.68,South,180,6.0,6.9,66,0.00,CLR,,0.00,WeatherDisplay:10.37,2013-01-13 22:09:00,
2013-01-13 16:14:00,74.1,62.0,29.68,SE,135,7.8,13.8,66,0.00,CLR,,0.00,WeatherDisplay:10.37,2013-01-13 22:14:00,
2013-01-13 16:19:00,73.9,61.9,29.71,SSW,202,8.7,11.5,66,0.00,CLR,,0.00,WeatherDisplay:10.37,2013-01-13 22:19:00,
2013-01-13 16:24:00,73.9,62.3,29.71,SSE,158,4.9,12.7,67,0.00,CLR,,0.00,WeatherDisplay:10.37,2013-01-13 22:24:00,
2013-01-13 16:29:00,73.9,62.3,29.71,South,180,5.4,8.5,67,0.00,CLR,,0.00,WeatherDisplay:10.37,2013-01-13 22:29:00,
2013-01-13 16:34:00,73.9,62.3,29.71,SSE,158,6.9,12.7,67,0.00,CLR,,0.00,WeatherDisplay:10.37,2013-01-13 22:34:00,
2013-01-13 16:39:00,73.8,62.1,29.71,South,180,5.6,10.4,67,0.00,CLR,,0.00,WeatherDisplay:10.37,2013-01-13 22:39:00,
2013-01-13 16:44:00,73.6,62.4,29.71,SE,135,6.7,10.4,68,0.00,CLR,,0.00,WeatherDisplay:10.37,2013-01-13 22:44:00,
2013-01-13 16:49:00,73.6,62.4,29.68,SSE,158,6.9,14.5,68,0.00,CLR,,0.00,WeatherDisplay:10.37,2013-01-13 22:49:00,
2013-01-13 16:54:00,73.6,62.4,29.68,SSE,158,7.4,13.8,68,0.00,CLR,,0.00,WeatherDisplay:10.37,2013-01-13 22:54:00,
2013-01-13 16:59:00,73.4,62.6,29.68,South,180,6.2,13.8,69,0.00,CLR,,0.00,WeatherDisplay:10.37,2013-01-13 22:59:00,
2013-01-13 17:04:00,73.2,62.8,29.68,SSE,158,7.1,12.7,70,0.00,CLR,,0.00,WeatherDisplay:10.37,2013-01-13 23:04:00,
2013-01-13 17:09:00,73.0,63.1,29.68,SSE,158,7.1,11.5,71,0.00,CLR,,0.00,WeatherDisplay:10.37,2013-01-13 23:09:00,
2013-01-13 17:14:00,73.0,63.1,29.68,SSW,202,6.0,9.2,71,0.00,CLR,,0.00,WeatherDisplay:10.37,2013-01-13 23:14:00,
2013-01-13 17:19:00,72.9,62.9,29.71,SSE,158,7.6,10.4,71,0.00,CLR,,0.00,WeatherDisplay:10.37,2013-01-13 23:19:00,
2013-01-13 17:24:00,72.9,63.3,29.71,SSE,158,5.4,9.2,72,0.00,CLR,,0.00,WeatherDisplay:10.37,2013-01-13 23:24:00,
2013-01-13 17:29:00,72.7,63.5,29.71,SSW,202,6.9,8.1,73,0.00,CLR,,0.00,WeatherDisplay:10.37,2013-01-13 23:29:00,
2013-01-13 17:34:00,72.7,63.5,29.68,SSW,202,5.9,9.2,73,0.00,CLR,,0.00,WeatherDisplay:10.37,2013-01-13 23:34:00,
2013-01-13 17:39:00,72.7,63.5,29.68,SSW,202,3.6,8.1,73,0.00,CLR,,0.00,WeatherDisplay:10.37,2013-01-13 23:39:00,
2013-01-13 17:44:00,72.5,63.7,29.68,SSW,202,5.4,6.9,74,0.00,CLR,,0.00,WeatherDisplay:10.37,2013-01-13 23:44:00,
2013-01-13 17:49:00,72.5,63.7,29.71,South,180,4.5,6.9,74,0.00,CLR,,0.00,WeatherDisplay:10.37,2013-01-13 23:49:00,
2013-01-13 17:54:00,72.5,63.7,29.71,South,180,6.2,8.1,74,0.00,CLR,,0.00,WeatherDisplay:10.37,2013-01-13 23:54:00,
2013-01-13 17:59:00,72.5,63.7,29.71,South,180,6.0,8.1,74,0.00,CLR,,0.00,WeatherDisplay:10.37,2013-01-13 23:59:00,
2013-01-13 18:04:00,72.5,63.7,29.71,SSE,158,6.9,9.8,74,0.00,CLR,,0.00,WeatherDisplay:10.37,2013-01-14 00:04:00,
2013-01-13 18:09:00,72.3,63.6,29.71,South,180,6.7,10.7,74,0.00,CLR,,0.00,WeatherDisplay:10.37,2013-01-14 00:09:00,
2013-01-13 18:14:00,72.3,63.9,29.71,SSE,158,8.5,11.5,75,0.00,CLR,,0.00,WeatherDisplay:10.37,2013-01-14 00:14:00,
2013-01-13 18:19:00,72.3,63.9,29.71,WSW,248,5.6,11.5,75,0.00,CLR,,0.00,WeatherDisplay:10.37,2013-01-14 00:19:00,
2013-01-13 18:24:00,72.3,63.9,29.71,SSW,202,6.4,10.4,75,0.00,CLR,,0.00,WeatherDisplay:10.37,2013-01-14 00:24:00,
2013-01-13 18:29:00,72.3,64.3,29.71,SSW,202,8.1,10.4,76,0.00,CLR,,0.00,WeatherDisplay:10.37,2013-01-14 00:29:00,
2013-01-13 18:34:00,72.3,64.3,29.71,South,180,6.4,10.4,76,0.00,CLR,,0.00,WeatherDisplay:10.37,2013-01-14 00:34:00,
2013-01-13 18:39:00,72.3,64.3,29.71,SSE,158,6.9,10.4,76,0.00,CLR,,0.00,WeatherDisplay:10.37,2013-01-14 00:39:00,
2013-01-13 18:44:00,72.3,64.3,29.71,South,180,4.5,7.8,76,0.00,CLR,,0.00,WeatherDisplay:10.37,2013-01-14 00:44:00,
2013-01-13 18:49:00,72.3,64.3,29.71,SW,225,6.0,9.2,76,0.00,CLR,,0.00,WeatherDisplay:10.37,2013-01-14 00:49:00,
2013-01-13 18:54:00,72.3,64.3,29.71,South,180,3.8,6.9,76,0.00,CLR,,0.00,WeatherDisplay:10.37,2013-01-14 00:54:00,
2013-01-13 18:59:00,72.3,64.3,29.71,SW,225,7.1,10.9,76,0.00,CLR,,0.00,WeatherDisplay:10.37,2013-01-14 00:59:00,
2013-01-13 19:04:00,72.3,64.3,29.71,SW,225,5.6,8.1,76,0.00,CLR,,0.00,WeatherDisplay:10.37,2013-01-14 01:04:00,
2013-01-13 19:09:00,72.1,64.2,29.71,South,180,7.6,9.2,76,0.00,CLR,,0.00,WeatherDisplay:10.37,2013-01-14 01:09:00,
2013-01-13 19:14:00,72.1,64.2,29.71,South,180,4.9,7.4,76,0.00,CLR,,0.00,WeatherDisplay:10.37,2013-01-14 01:14:00,
2013-01-13 19:19:00,72.1,64.5,29.71,SSW,202,4.7,9.2,77,0.00,CLR,,0.00,WeatherDisplay:10.37,2013-01-14 01:19:00,
2013-01-13 19:24:00,72.1,64.5,29.71,SSE,158,8.5,13.0,77,0.00,CLR,,0.00,WeatherDisplay:10.37,2013-01-14 01:24:00,
2013-01-13 19:29:00,72.1,64.5,29.71,SSE,158,7.4,10.4,77,0.00,CLR,,0.00,WeatherDisplay:10.37,2013-01-14 01:29:00,
2013-01-13 19:34:00,72.1,64.5,29.71,South,180,5.9,9.2,77,0.00,CLR,,0.00,WeatherDisplay:10.37,2013-01-14 01:34:00,
2013-01-13 19:39:00,72.1,64.9,29.71,SSE,158,7.4,10.4,78,0.00,CLR,,0.00,WeatherDisplay:10.37,2013-01-14 01:39:00,
2013-01-13 19:44:00,72.1,64.9,29.71,SSW,202,7.4,12.7,78,0.00,CLR,,0.00,WeatherDisplay:10.37,2013-01-14 01:44:00,
2013-01-13 19:49:00,72.0,64.7,29.71,SSE,158,7.4,10.4,78,0.00,CLR,,0.00,WeatherDisplay:10.37,2013-01-14 01:49:00,
2013-01-13 19:54:00,72.0,64.7,29.71,SSW,202,7.8,12.1,78,0.00,CLR,,0.00,WeatherDisplay:10.37,2013-01-14 01:54:00,
2013-01-13 19:59:00,72.0,64.7,29.71,SSW,202,8.5,13.8,78,0.00,CLR,,0.00,WeatherDisplay:10.37,2013-01-14 01:59:00,
2013-01-13 20:04:00,72.0,64.7,29.71,SSE,158,6.9,9.2,78,0.00,CLR,,0.00,WeatherDisplay:10.37,2013-01-14 02:04:00,
2013-01-13 20:09:00,72.0,64.7,29.71,SSW,202,6.9,9.2,78,0.00,CLR,,0.00,WeatherDisplay:10.37,2013-01-14 02:09:00,
2013-01-13 20:14:00,72.0,64.7,29.71,SSW,202,6.7,11.5,78,0.00,CLR,,0.00,WeatherDisplay:10.37,2013-01-14 02:14:00,
2013-01-13 20:19:00,72.0,64.7,29.71,South,180,7.8,13.8,78,0.00,CLR,,0.00,WeatherDisplay:10.37,2013-01-14 02:19:00,
2013-01-13 20:24:00,72.0,64.7,29.71,SW,225,6.7,6.9,78,0.00,CLR,,0.00,WeatherDisplay:10.37,2013-01-14 02:24:00,
2013-01-13 20:29:00,72.0,64.7,29.71,South,180,8.1,10.2,78,0.00,CLR,,0.00,WeatherDisplay:10.37,2013-01-14 02:29:00,
2013-01-13 20:34:00,72.0,64.7,29.71,SSW,202,6.7,8.1,78,0.00,CLR,,0.00,WeatherDisplay:10.37,2013-01-14 02:34:00,
2013-01-13 20:39:00,72.0,64.7,29.71,South,180,4.7,7.4,78,0.00,CLR,,0.00,WeatherDisplay:10.37,2013-01-14 02:39:00,
2013-01-13 20:44:00,72.0,64.7,29.71,SW,225,5.6,9.2,78,0.00,CLR,,0.00,WeatherDisplay:10.37,2013-01-14 02:44:00,
2013-01-13 20:49:00,72.0,64.7,29.71,SSW,202,4.0,6.2,78,0.00,CLR,,0.00,WeatherDisplay:10.37,2013-01-14 02:49:00,
2013-01-13 20:54:00,72.1,64.9,29.71,SW,225,4.9,11.5,78,0.00,CLR,,0.00,WeatherDisplay:10.37,2013-01-14 02:54:00,
2013-01-13 20:59:00,72.0,64.7,29.71,SW,225,5.4,8.5,78,0.00,CLR,,0.00,WeatherDisplay:10.37,2013-01-14 02:59:00,
2013-01-13 21:04:00,72.1,64.9,29.71,SSE,158,7.1,10.4,78,0.00,CLR,,0.00,WeatherDisplay:10.37,2013-01-14 03:04:00,
2013-01-13 21:09:00,72.0,64.7,29.71,SSW,202,7.1,8.1,78,0.00,CLR,,0.00,WeatherDisplay:10.37,2013-01-14 03:09:00,
2013-01-13 21:14:00,72.0,64.4,29.71,South,180,6.0,8.1,77,0.00,CLR,,0.00,WeatherDisplay:10.37,2013-01-14 03:14:00,
2013-01-13 21:19:00,72.0,64.4,29.71,South,180,5.6,9.2,77,0.00,CLR,,0.00,WeatherDisplay:10.37,2013-01-14 03:19:00,
2013-01-13 21:24:00,72.0,64.7,29.71,SSW,202,4.7,6.9,78,0.00,CLR,,0.00,WeatherDisplay:10.37,2013-01-14 03:24:00,
2013-01-13 21:29:00,72.0,64.7,29.71,SW,225,4.9,8.1,78,0.00,CLR,,0.00,WeatherDisplay:10.37,2013-01-14 03:29:00,
2013-01-13 21:34:00,70.3,57.6,29.71,NW,315,8.1,13.8,64,0.00,CLR,,0.00,WeatherDisplay:10.37,2013-01-14 03:34:00,
2013-01-13 21:39:00,69.6,56.9,29.71,NNW,338,6.9,13.2,64,0.00,CLR,,0.00,WeatherDisplay:10.37,2013-01-14 03:39:00,
2013-01-13 21:44:00,69.4,57.2,29.71,NNW,338,6.2,15.0,65,0.00,CLR,,0.00,WeatherDisplay:10.37,2013-01-14 03:44:00,
2013-01-13 21:49:00,68.9,56.2,29.74,West,270,4.0,6.2,64,0.00,CLR,,0.00,WeatherDisplay:10.37,2013-01-14 03:49:00,
2013-01-13 21:54:00,68.0,55.4,29.74,WNW,292,4.5,5.8,64,0.00,CLR,,0.00,WeatherDisplay:10.37,2013-01-14 03:54:00,
2013-01-13 21:59:00,67.1,54.9,29.74,WNW,292,4.9,6.2,65,0.00,CLR,,0.00,WeatherDisplay:10.37,2013-01-14 03:59:00,
2013-01-13 22:04:00,66.4,54.7,29.71,NNW,338,6.2,8.1,66,0.00,CLR,,0.00,WeatherDisplay:10.37,2013-01-14 04:04:00,
2013-01-13 22:09:00,65.5,55.4,29.71,North,0,6.7,8.1,70,0.00,CLR,,0.00,WeatherDisplay:10.37,2013-01-14 04:09:00,
2013-01-13 22:14:00,65.1,55.5,29.71,NNW,338,6.0,8.1,71,0.00,CLR,,0.00,WeatherDisplay:10.37,2013-01-14 04:14:00,
2013-01-13 22:19:00,64.9,56.1,29.74,NNW,338,6.4,7.6,73,0.00,CLR,,0.00,WeatherDisplay:10.37,2013-01-14 04:19:00,
2013-01-13 22:24:00,64.4,56.7,29.74,NNW,338,6.9,8.1,76,0.00,CLR,,0.00,WeatherDisplay:10.37,2013-01-14 04:24:00,
2013-01-13 22:29:00,64.2,57.2,29.74,NNW,338,6.4,9.2,78,0.00,CLR,,0.00,WeatherDisplay:10.37,2013-01-14 04:29:00,
2013-01-13 22:34:00,64.0,57.7,29.74,WNW,292,4.5,5.8,80,0.00,CLR,,0.00,WeatherDisplay:10.37,2013-01-14 04:34:00,
2013-01-13 22:39:00,63.9,57.6,29.74,North,0,3.6,5.6,80,0.00,CLR,,0.00,WeatherDisplay:10.37,2013-01-14 04:39:00,
2013-01-13 22:44:00,63.7,57.7,29.74,NW,315,3.8,5.8,81,0.00,CLR,,0.00,WeatherDisplay:10.37,2013-01-14 04:44:00,
2013-01-13 22:49:00,63.5,57.9,29.74,West,270,3.8,7.8,82,0.00,CLR,,0.00,WeatherDisplay:10.37,2013-01-14 04:49:00,
2013-01-13 22:54:00,63.1,57.6,29.74,NW,315,5.6,6.4,82,0.00,CLR,,0.00,WeatherDisplay:10.37,2013-01-14 04:54:00,
2013-01-13 22:59:00,63.0,57.4,29.74,North,0,4.7,8.1,82,0.00,CLR,,0.00,WeatherDisplay:10.37,2013-01-14 04:59:00,
2013-01-13 23:00:00,63.0,57.4,29.74,North,0,6.0,7.6,82,0.00,CLR,,0.00,WeatherDisplay:10.37,2013-01-14 05:00:00,
2013-01-13 23:02:00,63.0,57.4,29.74,NNW,338,4.9,8.1,82,0.00,CLR,,0.00,WeatherDisplay:10.37,2013-01-14 05:02:00,
2013-01-13 23:03:00,63.0,57.4,29.74,NNW,338,3.8,6.2,82,0.00,CLR,,0.00,WeatherDisplay:10.37,2013-01-14 05:03:00,
2013-01-13 23:04:00,63.0,57.4,29.74,NNW,338,4.9,6.2,82,0.00,CLR,,0.00,WeatherDisplay:10.37,2013-01-14 05:04:00,
2013-01-13 23:09:00,62.8,57.2,29.74,NW,315,2.9,4.6,82,0.00,CLR,,0.00,WeatherDisplay:10.37,2013-01-14 05:09:00,
2013-01-13 23:14:00,62.8,57.5,29.74,NNW,338,4.0,5.9,83,0.00,CLR,,0.00,WeatherDisplay:10.37,2013-01-14 05:14:00,
2013-01-13 23:19:00,62.8,57.5,29.74,North,0,3.1,4.6,83,0.00,CLR,,0.00,WeatherDisplay:10.37,2013-01-14 05:19:00,
2013-01-13 23:24:00,62.6,57.7,29.74,NNE,22,4.3,6.0,84,0.00,CLR,,0.00,WeatherDisplay:10.37,2013-01-14 05:24:00,
2013-01-13 23:29:00,62.6,58.0,29.74,WNW,292,3.1,4.6,85,0.00,CLR,,0.00,WeatherDisplay:10.37,2013-01-14 05:29:00,
2013-01-13 23:34:00,62.6,58.0,29.77,NNW,338,5.6,6.2,85,0.00,CLR,,0.00,WeatherDisplay:10.37,2013-01-14 05:34:00,
2013-01-13 23:39:00,62.2,57.7,29.77,NNW,338,4.7,5.8,85,0.00,CLR,,0.00,WeatherDisplay:10.37,2013-01-14 05:39:00,
2013-01-13 23:45:00,62.2,57.7,29.77,North,0,4.9,6.0,85,0.00,CLR,,0.00,WeatherDisplay:10.37,2013-01-14 05:45:00,
2013-01-13 23:50:00,62.1,57.5,29.74,WNW,292,4.9,8.1,85,0.00,CLR,,0.00,WeatherDisplay:10.37,2013-01-14 05:50:00,
2013-01-13 23:55:00,61.7,56.8,29.74,North,0,4.0,5.8,84,0.00,CLR,,0.00,WeatherDisplay:10.37,2013-01-14 05:55:00,